| time (UTC) | temp F | wind direction | speed MPH | gust MPH | rain 1hr in | rain 24hr in | rain mn in | humidity % | barometer mb |
| 20260508172005 | 60 | 259 | 2.0 | 11.0 | 0.00 | 0.00 | 0.00 | 35 | 1007.0 |
| 20260508171505 | 60 | 236 | 5.0 | 13.0 | 0.00 | 0.00 | 0.00 | 30 | 1006.9 |
| 20260508171004 | 60 | 262 | 5.0 | 14.0 | 0.00 | 0.00 | 0.00 | 31 | 1007.1 |
| 20260508170501 | 60 | 262 | 5.0 | 14.0 | 0.00 | 0.00 | 0.00 | 33 | 1007.1 |
| 20260508170309 | 60 | 265 | 5.0 | 14.0 | 0.00 | 0.00 | 0.00 | 33 | 1007.3 |
| 20260508165500 | 60 | 214 | 4.0 | 12.0 | 0.00 | 0.00 | 0.00 | 31 | 1007.3 |
| 20260508164958 | 60 | 279 | 4.0 | 13.0 | 0.00 | 0.00 | 0.00 | 36 | 1007.3 |
| 20260508164501 | 60 | 254 | 4.0 | 13.0 | 0.00 | 0.00 | 0.00 | 33 | 1007.6 |
| 20260508163948 | 59 | 247 | 4.0 | 11.0 | 0.00 | 0.00 | 0.00 | 33 | 1007.6 |
| 20260508163450 | 59 | 5 | 3.0 | 9.0 | 0.00 | 0.00 | 0.00 | 33 | 1007.6 |
| 20260508162949 | 60 | 273 | 2.0 | 8.0 | 0.00 | 0.00 | 0.00 | 33 | 1007.6 |
| 20260508162757 | 59 | 73 | 2.0 | 8.0 | 0.00 | 0.00 | 0.00 | 32 | 1007.6 |
| 20260508161949 | 58 | 40 | 3.0 | 11.0 | 0.00 | 0.00 | 0.00 | 32 | 1007.5 |
| 20260508161452 | 58 | 290 | 3.0 | 11.0 | 0.00 | 0.00 | 0.00 | 34 | 1007.5 |
| 20260508160950 | 58 | 200 | 3.0 | 11.0 | 0.00 | 0.00 | 0.00 | 34 | 1007.5 |
| 20260508160742 | 58 | 235 | 3.0 | 11.0 | 0.00 | 0.00 | 0.00 | 34 | 1007.5 |
| 20260508160250 | 58 | 199 | 5.0 | 10.0 | 0.00 | 0.00 | 0.00 | 33 | 1007.6 |
| 20260508155444 | 58 | 267 | 5.0 | 10.0 | 0.00 | 0.00 | 0.00 | 34 | 1007.6 |
| 20260508154943 | 57 | 217 | 4.0 | 10.0 | 0.00 | 0.00 | 0.00 | 32 | 1007.6 |
| 20260508154445 | 57 | 248 | 4.0 | 10.0 | 0.00 | 0.00 | 0.00 | 33 | 1007.5 |
| 20260508153945 | 57 | 178 | 4.0 | 9.0 | 0.00 | 0.00 | 0.00 | 32 | 1007.5 |
| 20260508153756 | 57 | 263 | 3.0 | 9.0 | 0.00 | 0.00 | 0.00 | 34 | 1007.6 |
| 20260508152946 | 57 | 265 | 3.0 | 8.0 | 0.00 | 0.00 | 0.00 | 34 | 1007.6 |
| 20260508152838 | 57 | 292 | 3.0 | 8.0 | 0.00 | 0.00 | 0.00 | 39 | 1007.6 |
| 20260508152832 | 57 | 292 | 3.0 | 8.0 | 0.00 | 0.00 | 0.00 | 36 | 1007.6 |
| 20260508151427 | 56 | 157 | 4.0 | 8.0 | 0.00 | 0.00 | 0.00 | 38 | 1007.8 |
| 20260508150915 | 56 | 281 | 3.0 | 9.0 | 0.00 | 0.00 | 0.00 | 39 | 1007.7 |
| 20260508150414 | 55 | 271 | 5.0 | 12.0 | 0.00 | 0.00 | 0.00 | 39 | 1007.7 |
| 20260508145913 | 55 | 231 | 6.0 | 12.0 | 0.00 | 0.00 | 0.00 | 39 | 1007.8 |
| 20260508145409 | 55 | 211 | 6.0 | 11.0 | 0.00 | 0.00 | 0.00 | 38 | 1007.8 |
| 20260508144904 | 54 | 161 | 5.0 | 11.0 | 0.00 | 0.00 | 0.00 | 41 | 1007.7 |
| 20260508144404 | 55 | 234 | 4.0 | 8.0 | 0.00 | 0.00 | 0.00 | 41 | 1007.8 |
| 20260508144217 | 54 | 201 | 4.0 | 8.0 | 0.00 | 0.00 | 0.00 | 41 | 1007.8 |
| 20260508143404 | 54 | 293 | 4.0 | 10.0 | 0.00 | 0.00 | 0.00 | 41 | 1007.8 |
| 20260508142857 | 54 | 231 | 4.0 | 10.0 | 0.00 | 0.00 | 0.00 | 40 | 1007.8 |
| 20260508142355 | 53 | 188 | 4.0 | 12.0 | 0.00 | 0.00 | 0.00 | 42 | 1007.8 |
| 20260508142159 | 53 | 286 | 5.0 | 12.0 | 0.00 | 0.00 | 0.00 | 45 | 1007.7 |
| 20260508141355 | 52 | 205 | 5.0 | 10.0 | 0.00 | 0.00 | 0.00 | 44 | 1007.8 |
| 20260508140905 | 52 | 231 | 4.0 | 10.0 | 0.00 | 0.00 | 0.00 | 47 | 1007.8 |
| 20260508140352 | 52 | 279 | 4.0 | 10.0 | 0.00 | 0.00 | 0.00 | 53 | 1007.8 |
| 20260508135854 | 51 | 229 | 3.0 | 7.0 | 0.00 | 0.00 | 0.00 | 53 | 1007.9 |
| 20260508135351 | 51 | 277 | 4.0 | 8.0 | 0.00 | 0.00 | 0.00 | 54 | 1007.9 |
| 20260508134850 | 51 | 214 | 3.0 | 8.0 | 0.00 | 0.00 | 0.00 | 55 | 1007.9 |
| 20260508134345 | 50 | 225 | 3.0 | 7.0 | 0.00 | 0.00 | 0.00 | 58 | 1008.0 |
| 20260508133932 | 50 | 254 | 2.0 | 7.0 | 0.00 | 0.00 | 0.00 | 59 | 1008.0 |
| 20260508132843 | 48 | 221 | 2.0 | 5.0 | 0.00 | 0.00 | 0.00 | 65 | 1008.0 |
| 20260508132312 | 47 | 225 | 2.0 | 7.0 | 0.00 | 0.00 | 0.00 | 66 | 1007.9 |
| 20260508131808 | 46 | 169 | 3.0 | 7.0 | 0.00 | 0.00 | 0.00 | 68 | 1007.9 |
| 20260508131313 | 46 | 230 | 2.0 | 6.0 | 0.00 | 0.00 | 0.00 | 71 | 1007.8 |
| 20260508130807 | 45 | 157 | 2.0 | 5.0 | 0.00 | 0.00 | 0.00 | 72 | 1007.8 |
| 20260508130306 | 44 | 173 | 1.0 | 3.0 | 0.00 | 0.00 | 0.00 | 75 | 1007.7 |
| 20260508125809 | 44 | 211 | 1.0 | 4.0 | 0.00 | 0.00 | 0.00 | 78 | 1007.8 |
| 20260508125310 | 43 | 194 | 1.0 | 4.0 | 0.00 | 0.00 | 0.00 | 80 | 1007.7 |
| 20260508124802 | 42 | 152 | 1.0 | 4.0 | 0.00 | 0.00 | 0.00 | 82 | 1007.6 |
| 20260508124255 | 41 | 157 | 2.0 | 4.0 | 0.00 | 0.00 | 0.00 | 84 | 1007.6 |
| 20260508123753 | 40 | 165 | 1.0 | 4.0 | 0.00 | 0.00 | 0.00 | 85 | 1007.5 |
| 20260508123246 | 39 | 172 | 1.0 | 4.0 | 0.00 | 0.00 | 0.00 | 87 | 1007.4 |
| 20260508122746 | 38 | 177 | 1.0 | 4.0 | 0.00 | 0.00 | 0.00 | 89 | 1007.3 |
| 20260508122242 | 38 | 173 | 0.0 | 4.0 | 0.00 | 0.00 | 0.00 | 90 | 1007.3 |
| 20260508121735 | 37 | 145 | 0.0 | 0.0 | 0.00 | 0.00 | 0.00 | 92 | 1007.2 |
| 20260508121157 | 36 | 145 | 0.0 | 0.0 | 0.00 | 0.00 | 0.00 | 93 | 1007.0 |
| 20260508120654 | 35 | 145 | 0.0 | 0.0 | 0.00 | 0.00 | 0.00 | 94 | 1007.0 |
| 20260508120142 | 34 | 145 | 0.0 | 0.0 | 0.00 | 0.00 | 0.00 | 95 | 1006.7 |
| 20260508115642 | 33 | 145 | 0.0 | 0.0 | 0.00 | 0.00 | 0.00 | 95 | 1006.7 |
| 20260508115054 | 31 | 145 | 0.0 | 0.0 | 0.00 | 0.00 | 0.00 | 95 | 1006.6 |
| 20260508114500 | 30 | 211 | 0.0 | 0.0 | 0.00 | 0.00 | 0.00 | 95 | 1006.5 |
| 20260508113959 | 29 | 211 | 0.0 | 0.0 | 0.00 | 0.00 | 0.00 | 95 | 1006.4 |
| 20260508113756 | 28 | 211 | 0.0 | 0.0 | 0.00 | 0.00 | 0.00 | 94 | 1006.3 |
| 20260508113240 | 27 | 211 | 0.0 | 0.0 | 0.00 | 0.00 | 0.00 | 94 | 1006.1 |
| 20260508112432 | 27 | 211 | 0.0 | 0.0 | 0.00 | 0.00 | 0.00 | 93 | 1006.0 |
| 20260508111913 | 27 | 211 | 0.0 | 0.0 | 0.00 | 0.00 | 0.00 | 93 | 1006.0 |
| 20260508111358 | 27 | 211 | 0.0 | 0.0 | 0.00 | 0.00 | 0.00 | 93 | 1005.9 |
| 20260508110857 | 26 | 211 | 0.0 | 0.0 | 0.00 | 0.00 | 0.00 | 93 | 1005.9 |
| 20260508110357 | 26 | 211 | 0.0 | 0.0 | 0.00 | 0.00 | 0.00 | 93 | 1005.9 |
| 20260508105848 | 26 | 211 | 0.0 | 0.0 | 0.00 | 0.00 | 0.00 | 93 | 1005.8 |
| 20260508105346 | 26 | 211 | 0.0 | 0.0 | 0.00 | 0.00 | 0.00 | 93 | 1005.8 |
| 20260508104802 | 26 | 211 | 0.0 | 0.0 | 0.00 | 0.00 | 0.00 | 93 | 1005.8 |
| 20260508104300 | 26 | 211 | 0.0 | 0.0 | 0.00 | 0.00 | 0.00 | 93 | 1005.8 |
| 20260508104039 | 26 | 211 | 0.0 | 0.0 | 0.00 | 0.00 | 0.00 | 93 | 1005.8 |
| 20260508103242 | 26 | 211 | 0.0 | 0.0 | 0.00 | 0.00 | 0.00 | 93 | 1005.8 |
| 20260508102700 | 26 | 211 | 0.0 | 0.0 | 0.00 | 0.00 | 0.00 | 93 | 1005.9 |
| 20260508102200 | 26 | 211 | 0.0 | 0.0 | 0.00 | 0.00 | 0.00 | 93 | 1005.9 |
| 20260508101648 | 26 | 211 | 0.0 | 0.0 | 0.00 | 0.00 | 0.00 | 93 | 1005.9 |
| 20260508101101 | 26 | 211 | 0.0 | 0.0 | 0.00 | 0.00 | 0.00 | 93 | 1006.1 |
| 20260508100551 | 26 | 211 | 0.0 | 0.0 | 0.00 | 0.00 | 0.00 | 93 | 1006.1 |
| 20260508100249 | 26 | 211 | 0.0 | 0.0 | 0.00 | 0.00 | 0.00 | 93 | 1006.1 |
| 20260508095451 | 26 | 211 | 0.0 | 0.0 | 0.00 | 0.00 | 0.00 | 93 | 1006.0 |
| 20260508094946 | 26 | 211 | 0.0 | 0.0 | 0.00 | 0.00 | 0.00 | 93 | 1006.0 |
| 20260508094444 | 26 | 211 | 0.0 | 0.0 | 0.00 | 0.00 | 0.00 | 93 | 1006.2 |
| 20260508093907 | 26 | 211 | 0.0 | 0.0 | 0.00 | 0.00 | 0.00 | 93 | 1006.2 |
| 20260508093246 | 26 | 211 | 0.0 | 0.0 | 0.00 | 0.00 | 0.00 | 93 | 1006.2 |
| 20260508092745 | 26 | 211 | 0.0 | 0.0 | 0.00 | 0.00 | 0.00 | 93 | 1006.3 |
| 20260508092243 | 26 | 211 | 0.0 | 0.0 | 0.00 | 0.00 | 0.00 | 93 | 1006.3 |
| 20260508091705 | 26 | 211 | 0.0 | 0.0 | 0.00 | 0.00 | 0.00 | 93 | 1006.3 |
| 20260508091217 | 27 | 211 | 0.0 | 0.0 | 0.00 | 0.00 | 0.00 | 93 | 1006.3 |
| 20260508091207 | 27 | 211 | 0.0 | 0.0 | 0.00 | 0.00 | 0.00 | 93 | 1006.3 |
| 20260508090150 | 27 | 211 | 0.0 | 0.0 | 0.00 | 0.00 | 0.00 | 92 | 1006.3 |
| 20260508085644 | 27 | 211 | 0.0 | 0.0 | 0.00 | 0.00 | 0.00 | 92 | 1006.5 |
| 20260508085145 | 27 | 211 | 0.0 | 0.0 | 0.00 | 0.00 | 0.00 | 92 | 1006.5 |
| 20260508084553 | 27 | 211 | 0.0 | 0.0 | 0.00 | 0.00 | 0.00 | 92 | 1006.5 |
| 20260508084053 | 27 | 211 | 0.0 | 0.0 | 0.00 | 0.00 | 0.00 | 92 | 1006.5 |
| 20260508083554 | 27 | 211 | 0.0 | 0.0 | 0.00 | 0.00 | 0.00 | 92 | 1006.5 |
| 20260508083049 | 27 | 211 | 0.0 | 0.0 | 0.00 | 0.00 | 0.00 | 92 | 1006.5 |
| 20260508082455 | 27 | 211 | 0.0 | 0.0 | 0.00 | 0.00 | 0.00 | 92 | 1006.5 |
| 20260508081901 | 27 | 211 | 0.0 | 0.0 | 0.00 | 0.00 | 0.00 | 92 | 1006.5 |
| 20260508081403 | 28 | 211 | 0.0 | 0.0 | 0.00 | 0.00 | 0.00 | 92 | 1006.7 |
| 20260508080755 | 27 | 211 | 0.0 | 0.0 | 0.00 | 0.00 | 0.00 | 92 | 1006.6 |
| 20260508080246 | 28 | 211 | 0.0 | 0.0 | 0.00 | 0.00 | 0.00 | 92 | 1006.7 |
| 20260508075745 | 28 | 211 | 0.0 | 0.0 | 0.00 | 0.00 | 0.00 | 92 | 1006.7 |
| 20260508075525 | 28 | 211 | 0.0 | 0.0 | 0.00 | 0.00 | 0.00 | 92 | 1006.7 |
| 20260508074742 | 28 | 211 | 0.0 | 0.0 | 0.00 | 0.00 | 0.00 | 91 | 1006.7 |
| 20260508074525 | 28 | 211 | 0.0 | 0.0 | 0.00 | 0.00 | 0.00 | 91 | 1006.7 |
| 20260508073701 | 28 | 211 | 0.0 | 0.0 | 0.00 | 0.00 | 0.00 | 91 | 1006.7 |
| 20260508073150 | 28 | 211 | 0.0 | 0.0 | 0.00 | 0.00 | 0.00 | 91 | 1006.7 |
| 20260508072927 | 28 | 211 | 0.0 | 0.0 | 0.00 | 0.00 | 0.00 | 91 | 1006.9 |
| 20260508072055 | 28 | 211 | 0.0 | 0.0 | 0.00 | 0.00 | 0.00 | 91 | 1006.9 |
| 20260508071553 | 29 | 211 | 0.0 | 0.0 | 0.00 | 0.00 | 0.00 | 91 | 1006.9 |
| 20260508071023 | 29 | 211 | 0.0 | 0.0 | 0.00 | 0.00 | 0.00 | 90 | 1006.9 |
| 20260508070234 | 29 | 211 | 0.0 | 0.0 | 0.00 | 0.00 | 0.00 | 90 | 1007.1 |
| 20260508065359 | 29 | 211 | 0.0 | 0.0 | 0.00 | 0.00 | 0.00 | 90 | 1007.1 |
| 20260508064801 | 29 | 211 | 0.0 | 0.0 | 0.00 | 0.00 | 0.00 | 90 | 1007.1 |
| 20260508064253 | 29 | 211 | 0.0 | 0.0 | 0.00 | 0.00 | 0.00 | 90 | 1007.1 |
| 20260508063744 | 29 | 211 | 0.0 | 0.0 | 0.00 | 0.00 | 0.00 | 90 | 1007.1 |
| 20260508063152 | 30 | 211 | 0.0 | 0.0 | 0.00 | 0.00 | 0.00 | 90 | 1007.1 |
| 20260508062603 | 30 | 211 | 0.0 | 0.0 | 0.00 | 0.00 | 0.00 | 89 | 1007.2 |
| 20260508062102 | 30 | 211 | 0.0 | 0.0 | 0.00 | 0.00 | 0.00 | 89 | 1007.2 |
| 20260508061558 | 30 | 211 | 0.0 | 0.0 | 0.00 | 0.00 | 0.00 | 89 | 1007.2 |
| 20260508061050 | 30 | 211 | 0.0 | 0.0 | 0.00 | 0.00 | 0.00 | 88 | 1007.2 |
| 20260508060821 | 30 | 211 | 0.0 | 0.0 | 0.00 | 0.00 | 0.00 | 88 | 1007.2 |
| 20260508060005 | 31 | 211 | 0.0 | 0.0 | 0.00 | 0.00 | 0.00 | 88 | 1007.2 |
| 20260508055501 | 31 | 211 | 0.0 | 0.0 | 0.00 | 0.00 | 0.00 | 88 | 1007.3 |
| 20260508054951 | 31 | 211 | 0.0 | 0.0 | 0.00 | 0.00 | 0.00 | 88 | 1007.3 |
| 20260508054449 | 31 | 211 | 0.0 | 0.0 | 0.00 | 0.00 | 0.00 | 87 | 1007.3 |
| 20260508053948 | 31 | 211 | 0.0 | 0.0 | 0.00 | 0.00 | 0.00 | 87 | 1007.3 |
| 20260508053355 | 32 | 211 | 0.0 | 0.0 | 0.00 | 0.00 | 0.00 | 87 | 1007.4 |
| 20260508052745 | 32 | 211 | 0.0 | 0.0 | 0.00 | 0.00 | 0.00 | 87 | 1007.4 |
| 20260508052241 | 32 | 211 | 0.0 | 0.0 | 0.00 | 0.00 | 0.00 | 86 | 1007.4 |
| 20260508051956 | 33 | 211 | 0.0 | 1.0 | 0.00 | 0.00 | 0.00 | 86 | 1007.4 |
| 20260508051424 | 33 | 211 | 0.0 | 2.0 | 0.00 | 0.00 | 0.00 | 86 | 1007.4 |
| 20260508050556 | 33 | 211 | 0.0 | 2.0 | 0.00 | 0.00 | 0.00 | 86 | 1007.4 |
| 20260508045553 | 34 | 211 | 0.0 | 0.0 | 0.00 | 0.00 | 0.00 | 85 | 1007.4 |
| 20260508045053 | 34 | 211 | 0.0 | 0.0 | 0.00 | 0.00 | 0.00 | 85 | 1007.5 |
| 20260508044747 | 35 | 211 | 0.0 | 0.0 | 0.00 | 0.00 | 0.00 | 84 | 1007.4 |
| 20260508043937 | 35 | 211 | 0.0 | 0.0 | 0.00 | 0.00 | 0.00 | 84 | 1007.4 |
| 20260508043410 | 36 | 211 | 0.0 | 0.0 | 0.00 | 0.00 | 0.00 | 83 | 1007.5 |
| 20260508042854 | 36 | 211 | 0.0 | 0.0 | 0.00 | 0.00 | 0.00 | 83 | 1007.5 |
| 20260508042250 | 37 | 211 | 0.0 | 1.0 | 0.00 | 0.00 | 0.00 | 83 | 1007.5 |
| 20260508041745 | 37 | 211 | 1.0 | 2.0 | 0.00 | 0.00 | 0.00 | 82 | 1007.6 |
| 20260508041239 | 37 | 211 | 1.0 | 2.0 | 0.00 | 0.00 | 0.00 | 82 | 1007.6 |
| 20260508040735 | 38 | 211 | 0.0 | 2.0 | 0.00 | 0.00 | 0.00 | 81 | 1007.6 |
| 20260508040155 | 38 | 211 | 0.0 | 1.0 | 0.00 | 0.00 | 0.00 | 81 | 1007.6 |
| 20260508035658 | 38 | 211 | 0.0 | 0.0 | 0.00 | 0.00 | 0.00 | 81 | 1008.0 |
| 20260508035056 | 39 | 211 | 0.0 | 1.0 | 0.00 | 0.00 | 0.00 | 81 | 1008.0 |
| 20260508034554 | 39 | 211 | 0.0 | 1.0 | 0.00 | 0.00 | 0.00 | 81 | 1008.0 |
| 20260508034053 | 39 | 211 | 0.0 | 0.0 | 0.00 | 0.00 | 0.00 | 81 | 1007.9 |
| 20260508033547 | 39 | 211 | 0.0 | 0.0 | 0.00 | 0.00 | 0.00 | 81 | 1007.9 |
| 20260508033053 | 39 | 211 | 0.0 | 0.0 | 0.00 | 0.00 | 0.00 | 81 | 1007.9 |
| 20260508032537 | 39 | 211 | 0.0 | 0.0 | 0.00 | 0.00 | 0.00 | 81 | 1008.2 |
| 20260508032003 | 39 | 211 | 0.0 | 0.0 | 0.00 | 0.00 | 0.00 | 80 | 1008.2 |
| 20260508031729 | 39 | 211 | 0.0 | 0.0 | 0.00 | 0.00 | 0.00 | 79 | 1008.2 |
| 20260508030958 | 39 | 211 | 0.0 | 0.0 | 0.00 | 0.00 | 0.00 | 79 | 1008.2 |
| 20260508030443 | 39 | 211 | 0.0 | 0.0 | 0.00 | 0.00 | 0.00 | 79 | 1008.2 |
| 20260508025934 | 39 | 211 | 0.0 | 0.0 | 0.00 | 0.00 | 0.00 | 79 | 1007.9 |
| 20260508025359 | 40 | 211 | 0.0 | 0.0 | 0.00 | 0.00 | 0.00 | 78 | 1008.0 |
| 20260508024851 | 40 | 211 | 0.0 | 0.0 | 0.00 | 0.00 | 0.00 | 76 | 1008.0 |
| 20260508024316 | 40 | 211 | 0.0 | 0.0 | 0.00 | 0.00 | 0.00 | 76 | 1008.1 |
| 20260508023756 | 40 | 211 | 0.0 | 0.0 | 0.00 | 0.00 | 0.00 | 75 | 1008.1 |
| 20260508023250 | 40 | 211 | 0.0 | 0.0 | 0.00 | 0.00 | 0.00 | 75 | 1008.1 |
| 20260508022747 | 40 | 211 | 0.0 | 0.0 | 0.00 | 0.00 | 0.00 | 74 | 1007.8 |
| 20260508022242 | 41 | 211 | 0.0 | 1.0 | 0.00 | 0.00 | 0.00 | 75 | 1007.8 |
| 20260508021932 | 41 | 211 | 0.0 | 1.0 | 0.00 | 0.00 | 0.00 | 74 | 1007.8 |
| 20260508021729 | 41 | 211 | 0.0 | 0.0 | 0.00 | 0.00 | 0.00 | 73 | 1007.8 |
| 20260508021433 | 41 | 211 | 0.0 | 0.0 | 0.00 | 0.00 | 0.00 | 73 | 1007.8 |
| 20260508021252 | 41 | 211 | 0.0 | 0.0 | 0.00 | 0.00 | 0.00 | 72 | 1007.9 |
| 20260508020113 | 41 | 211 | 0.0 | 0.0 | 0.00 | 0.00 | 0.00 | 71 | 1007.9 |
| 20260508015620 | 41 | 211 | 0.0 | 0.0 | 0.00 | 0.00 | 0.00 | 70 | 1007.8 |
| 20260508015112 | 42 | 211 | 0.0 | 0.0 | 0.00 | 0.00 | 0.00 | 69 | 1007.8 |
| 20260508014922 | 42 | 211 | 0.0 | 0.0 | 0.00 | 0.00 | 0.00 | 68 | 1007.8 |
| 20260508014614 | 42 | 211 | 0.0 | 0.0 | 0.00 | 0.00 | 0.00 | 69 | 1007.8 |
| 20260508013017 | 43 | 211 | 0.0 | 0.0 | 0.00 | 0.00 | 0.00 | 64 | 1007.5 |
| 20260508012707 | 44 | 211 | 0.0 | 0.0 | 0.00 | 0.00 | 0.00 | 63 | 1007.6 |
| 20260508012400 | 44 | 211 | 0.0 | 0.0 | 0.00 | 0.00 | 0.00 | 62 | 1007.6 |
| 20260508011321 | 44 | 211 | 0.0 | 0.0 | 0.00 | 0.00 | 0.00 | 61 | 1007.6 |
| 20260508010808 | 45 | 211 | 0.0 | 0.0 | 0.00 | 0.00 | 0.00 | 60 | 1007.7 |
| 20260508010257 | 45 | 211 | 0.0 | 2.0 | 0.00 | 0.00 | 0.00 | 60 | 1007.7 |
| 20260508005827 | 45 | 211 | 1.0 | 2.0 | 0.00 | 0.00 | 0.00 | 59 | 1007.6 |
| 20260508005253 | 45 | 211 | 1.0 | 2.0 | 0.00 | 0.00 | 0.00 | 58 | 1007.6 |
| 20260508004749 | 46 | 210 | 1.0 | 3.0 | 0.00 | 0.00 | 0.00 | 57 | 1007.6 |
| 20260508004246 | 46 | 210 | 1.0 | 3.0 | 0.00 | 0.00 | 0.00 | 57 | 1007.6 |
| 20260508003708 | 46 | 217 | 1.0 | 4.0 | 0.00 | 0.00 | 0.00 | 57 | 1007.6 |
| 20260508003209 | 46 | 217 | 1.0 | 4.0 | 0.00 | 0.00 | 0.00 | 57 | 1007.6 |
| 20260508002705 | 46 | 257 | 1.0 | 5.0 | 0.00 | 0.00 | 0.00 | 57 | 1007.6 |
| 20260508002203 | 46 | 242 | 1.0 | 5.0 | 0.00 | 0.00 | 0.00 | 55 | 1007.7 |
| 20260508001704 | 47 | 227 | 2.0 | 5.0 | 0.00 | 0.00 | 0.00 | 54 | 1007.7 |
| 20260508001204 | 47 | 263 | 2.0 | 5.0 | 0.00 | 0.00 | 0.00 | 54 | 1007.7 |
| 20260508001015 | 47 | 227 | 2.0 | 4.0 | 0.00 | 0.00 | 0.00 | 53 | 1007.7 |
| 20260508000511 | 47 | 264 | 2.0 | 4.0 | 0.00 | 0.00 | 0.00 | 54 | 1007.7 |
| 20260507235658 | 47 | 213 | 1.0 | 4.0 | 0.00 | 0.00 | 0.00 | 52 | 1007.8 |
| 20260507235152 | 47 | 265 | 2.0 | 6.0 | 0.00 | 0.00 | 0.00 | 53 | 1007.8 |
| 20260507234652 | 47 | 266 | 3.0 | 6.0 | 0.00 | 0.00 | 0.00 | 53 | 1007.8 |
| 20260507234149 | 47 | 259 | 3.0 | 9.0 | 0.00 | 0.00 | 0.00 | 53 | 1007.8 |
| 20260507233647 | 47 | 272 | 3.0 | 9.0 | 0.00 | 0.00 | 0.00 | 53 | 1007.8 |
| 20260507233147 | 47 | 261 | 4.0 | 7.0 | 0.00 | 0.00 | 0.00 | 53 | 1007.8 |
| 20260507232647 | 47 | 262 | 3.0 | 7.0 | 0.00 | 0.00 | 0.00 | 53 | 1007.9 |
| 20260507232144 | 47 | 267 | 3.0 | 7.0 | 0.00 | 0.00 | 0.00 | 53 | 1007.9 |
| 20260507231648 | 47 | 240 | 3.0 | 6.0 | 0.00 | 0.00 | 0.00 | 54 | 1007.9 |
| 20260507231142 | 47 | 298 | 4.0 | 8.0 | 0.00 | 0.00 | 0.00 | 53 | 1008.0 |
| 20260507230631 | 47 | 247 | 5.0 | 11.0 | 0.00 | 0.00 | 0.00 | 52 | 1008.0 |
| 20260507230131 | 47 | 241 | 4.0 | 11.0 | 0.00 | 0.00 | 0.00 | 52 | 1008.0 |
| 20260507225626 | 47 | 246 | 4.0 | 10.0 | 0.00 | 0.00 | 0.00 | 51 | 1008.2 |
| 20260507225420 | 47 | 202 | 5.0 | 10.0 | 0.00 | 0.00 | 0.00 | 52 | 1008.2 |
| 20260507224615 | 47 | 284 | 4.0 | 10.0 | 0.00 | 0.00 | 0.00 | 50 | 1008.2 |
| 20260507224109 | 48 | 232 | 3.0 | 8.0 | 0.00 | 0.00 | 0.00 | 50 | 1008.3 |
| 20260507223916 | 48 | 260 | 4.0 | 10.0 | 0.00 | 0.00 | 0.00 | 49 | 1008.3 |
| 20260507223110 | 48 | 250 | 5.0 | 10.0 | 0.00 | 0.00 | 0.00 | 49 | 1008.3 |
| 20260507222609 | 48 | 267 | 4.0 | 9.0 | 0.00 | 0.00 | 0.00 | 48 | 1008.3 |
| 20260507222110 | 48 | 275 | 3.0 | 8.0 | 0.00 | 0.00 | 0.00 | 47 | 1008.3 |
| 20260507221608 | 48 | 184 | 3.0 | 6.0 | 0.00 | 0.00 | 0.00 | 47 | 1008.4 |
| 20260507221107 | 48 | 211 | 3.0 | 8.0 | 0.00 | 0.00 | 0.00 | 46 | 1008.3 |
| 20260507220911 | 48 | 300 | 4.0 | 16.0 | 0.00 | 0.00 | 0.00 | 45 | 1008.3 |
| 20260507215603 | 49 | 213 | 4.0 | 8.0 | 0.00 | 0.00 | 0.00 | 44 | 1008.1 |
| 20260507215107 | 49 | 207 | 4.0 | 8.0 | 0.00 | 0.00 | 0.00 | 43 | 1008.1 |
| 20260507214559 | 49 | 264 | 4.0 | 8.0 | 0.00 | 0.00 | 0.00 | 42 | 1008.1 |
| 20260507214404 | 49 | 267 | 4.0 | 8.0 | 0.00 | 0.00 | 0.00 | 43 | 1007.9 |
| 20260507213604 | 49 | 297 | 4.0 | 11.0 | 0.00 | 0.00 | 0.00 | 42 | 1007.9 |
| 20260507213057 | 49 | 279 | 4.0 | 12.0 | 0.00 | 0.00 | 0.00 | 41 | 1007.9 |
| 20260507212914 | 50 | 348 | 4.0 | 12.0 | 0.00 | 0.00 | 0.00 | 42 | 1007.9 |
| 20260507212050 | 50 | 211 | 4.0 | 9.0 | 0.00 | 0.00 | 0.00 | 41 | 1007.9 |
| 20260507211550 | 50 | 269 | 5.0 | 11.0 | 0.00 | 0.00 | 0.00 | 41 | 1007.9 |
| 20260507211419 | 50 | 240 | 5.0 | 13.0 | 0.00 | 0.00 | 0.00 | 42 | 1008.0 |
| 20260507210920 | 50 | 224 | 3.0 | 13.0 | 0.00 | 0.00 | 0.00 | 40 | 1008.0 |
| 20260507210059 | 50 | 250 | 4.0 | 10.0 | 0.00 | 0.00 | 0.00 | 42 | 1008.0 |
| 20260507205904 | 50 | 9 | 5.0 | 10.0 | 0.00 | 0.00 | 0.00 | 42 | 1008.0 |
| 20260507205045 | 51 | 284 | 5.0 | 14.0 | 0.00 | 0.00 | 0.00 | 41 | 1008.1 |
| 20260507204900 | 51 | 288 | 4.0 | 14.0 | 0.00 | 0.00 | 0.00 | 38 | 1008.1 |
| 20260507204351 | 51 | 331 | 3.0 | 7.0 | 0.00 | 0.00 | 0.00 | 42 | 1008.1 |
| 20260507203545 | 51 | 236 | 4.0 | 13.0 | 0.00 | 0.00 | 0.00 | 40 | 1008.1 |
| 20260507203158 | 51 | 292 | 5.0 | 15.0 | 0.00 | 0.00 | 0.00 | 41 | 1008.1 |
| 20260507203131 | 51 | 278 | 5.0 | 13.0 | 0.00 | 0.00 | 0.00 | 39 | 1008.1 |
| 20260507202012 | 51 | 255 | 5.0 | 15.0 | 0.00 | 0.00 | 0.00 | 40 | 1008.1 |
| 20260507201820 | 51 | 239 | 4.0 | 14.0 | 0.00 | 0.00 | 0.00 | 42 | 1008.1 |
| 20260507201012 | 51 | 307 | 5.0 | 14.0 | 0.00 | 0.00 | 0.00 | 39 | 1008.1 |
| 20260507200818 | 51 | 267 | 4.0 | 13.0 | 0.00 | 0.00 | 0.00 | 42 | 1008.1 |
| 20260507200318 | 50 | 256 | 4.0 | 14.0 | 0.00 | 0.00 | 0.00 | 40 | 1008.0 |
| 20260507195512 | 50 | 237 | 5.0 | 14.0 | 0.00 | 0.00 | 0.00 | 40 | 1008.3 |
| 20260507195008 | 51 | 294 | 4.0 | 12.0 | 0.00 | 0.00 | 0.00 | 40 | 1008.4 |
| 20260507194507 | 52 | 240 | 4.0 | 12.0 | 0.00 | 0.00 | 0.00 | 39 | 1008.4 |
| 20260507194009 | 52 | 19 | 3.0 | 12.0 | 0.00 | 0.00 | 0.00 | 41 | 1008.3 |
| 20260507193819 | 52 | 297 | 3.0 | 8.0 | 0.00 | 0.00 | 0.00 | 47 | 1008.3 |
| 20260507193004 | 51 | 236 | 4.0 | 10.0 | 0.00 | 0.00 | 0.00 | 42 | 1008.3 |
| 20260507192505 | 51 | 213 | 6.0 | 12.0 | 0.00 | 0.00 | 0.00 | 41 | 1008.4 |
| 20260507192004 | 52 | 311 | 4.0 | 12.0 | 0.00 | 0.00 | 0.00 | 38 | 1008.4 |
| 20260507191818 | 52 | 175 | 2.0 | 8.0 | 0.00 | 0.00 | 0.00 | 43 | 1008.5 |
| 20260507191004 | 51 | 296 | 4.0 | 12.0 | 0.00 | 0.00 | 0.00 | 47 | 1008.5 |
| 20260507190505 | 51 | 260 | 5.0 | 12.0 | 0.00 | 0.00 | 0.00 | 40 | 1008.5 |
| 20260507190001 | 52 | 325 | 4.0 | 9.0 | 0.00 | 0.00 | 0.00 | 40 | 1008.5 |
| 20260507185500 | 52 | 248 | 3.0 | 9.0 | 0.00 | 0.00 | 0.00 | 43 | 1008.6 |
| 20260507184958 | 52 | 25 | 2.0 | 7.0 | 0.00 | 0.00 | 0.00 | 44 | 1008.5 |
| 20260507184501 | 51 | 242 | 2.0 | 6.0 | 0.00 | 0.00 | 0.00 | 45 | 1008.6 |
| 20260507183954 | 51 | 340 | 3.0 | 9.0 | 0.00 | 0.00 | 0.00 | 44 | 1008.6 |
| 20260507183452 | 51 | 230 | 3.0 | 9.0 | 0.00 | 0.00 | 0.00 | 44 | 1008.6 |
| 20260507182952 | 51 | 318 | 3.0 | 7.0 | 0.00 | 0.00 | 0.00 | 47 | 1008.9 |
| 20260507182441 | 51 | 304 | 3.0 | 13.0 | 0.00 | 0.00 | 0.00 | 46 | 1008.8 |
| 20260507181932 | 51 | 0 | 3.0 | 13.0 | 0.00 | 0.00 | 0.00 | 46 | 1008.8 |
| 20260507181606 | 50 | 258 | 3.0 | 8.0 | 0.00 | 0.00 | 0.00 | 45 | 1009.0 |
| 20260507181530 | 51 | 288 | 3.0 | 8.0 | 0.00 | 0.00 | 0.00 | 46 | 1009.0 |
| 20260507180732 | 50 | 310 | 3.0 | 12.0 | 0.00 | 0.00 | 0.00 | 47 | 1009.0 |
| 20260507180009 | 50 | 303 | 2.0 | 12.0 | 0.00 | 0.00 | 0.00 | 48 | 1009.1 |
| 20260507174908 | 47 | 228 | 3.0 | 6.0 | 0.00 | 0.00 | 0.00 | 51 | 1008.9 |
| 20260507174413 | 48 | 258 | 4.0 | 10.0 | 0.00 | 0.00 | 0.00 | 50 | 1009.2 |
| 20260507173907 | 48 | 290 | 3.0 | 10.0 | 0.00 | 0.00 | 0.00 | 50 | 1009.2 |
| 20260507173719 | 47 | 325 | 2.0 | 8.0 | 0.00 | 0.00 | 0.00 | 56 | 1009.1 |
| 20260507172909 | 46 | 261 | 3.0 | 8.0 | 0.00 | 0.00 | 0.00 | 53 | 1009.3 |
| 20260507172408 | 46 | 292 | 3.0 | 7.0 | 0.00 | 0.00 | 0.00 | 54 | 1009.3 |
| 20260507172216 | 47 | 217 | 3.0 | 6.0 | 0.00 | 0.00 | 0.00 | 54 | 1009.3 |